Houlton, ME

6:35 PM EDT on May 23, 2018 (GMT -0400)
Houlton International

Weather History for KHUL - January, 2014

Change the Weather History Date:

Thursday, January 23, 2014

  Actual Average Record
Temperature  
Mean Temperature 4 °F 11 °F  
Max Temperature 10 °F 22 °F 48 °F (1973)
Min Temperature -3 °F 0 °F -29 °F (1994)
Degree Days  
Heating Degree Days 61 54  
Month to date heating degree days 1132 1224  
Since 1 July heating degree days 4694 4744  
Cooling Degree Days 0 0  
Month to date cooling degree days 0 0  
Year to date cooling degree days 0 0  
Moisture  
Dew Point -7 °F    
Average Humidity 63    
Maximum Humidity 75    
Minimum Humidity 50    
Precipitation  
Precipitation 0.00 in 0.09 in 1.16 in (2018)
Month to date precipitation 3.45 2.14  
Year to date precipitation 3.45 2.14  
Sea Level Pressure  
Sea Level Pressure 29.84 in    
Wind  
Wind Speed 8 mph (WNW)    
Max Wind Speed 17 mph    
Max Gust Speed 23 mph    
Visibility 10 miles    
Events      
T = Trace of Precipitation, MM = Missing Value Source: NWS Daily Summary

Daily Weather History Graph

Daily Weather History Graph

Search for Another Location

Airport or City:

Astronomy

Jan. 23, 2014 Rise Set
Actual Time 7:03 AM EST 4:23 PM EST
Civil Twilight 6:30 AM EST 4:55 PM EST
Nautical Twilight 5:54 AM EST 5:32 PM EST
Astronomical Twilight 5:18 AM EST 6:08 PM EST
Moon No Moon Rise 10:10 AM EST
Length of Visible Light 10h 25m
Length of Day
9h 19m
Waning Gibbous, 55% of the Moon is Illuminated
Jan 23
Waning Gibbous
Jan 24
Last Quarter
Jan 30
New
Feb 6
First Quarter
Feb 14
Full

Hourly Weather History & Observations

Time (EST) Temp. Windchill Dew Point Humidity Pressure Visibility Wind Dir Wind Speed Gust Speed Precip Events Conditions
12:53 AM 1.9 °F -11.8 °F -5.1 °F 72% 29.73 in 10.0 mi WNW 8.1 mph - N/A   Overcast
1:53 AM 1.9 °F -14.7 °F -5.1 °F 72% 29.75 in 10.0 mi WNW 11.5 mph - N/A   Overcast
2:53 AM 1.9 °F -11.8 °F -6.0 °F 69% 29.76 in 10.0 mi NW 8.1 mph - N/A   Overcast
3:53 AM 1.9 °F -12.9 °F -5.1 °F 72% 29.76 in 10.0 mi NW 9.2 mph 18.4 mph N/A   Overcast
4:53 AM 1.0 °F -17.3 °F -7.1 °F 69% 29.77 in 10.0 mi NW 13.8 mph 20.7 mph N/A   Overcast
5:24 AM -0.9 °F -15.3 °F -8.0 °F 72% 29.74 in 10.0 mi NW 8.1 mph - N/A   Scattered Clouds
5:53 AM -0.9 °F -16.4 °F -9.0 °F 69% 29.80 in 10.0 mi WNW 9.2 mph - N/A   Scattered Clouds
6:04 AM -2.0 °F -16.6 °F -9.0 °F 72% 29.75 in 10.0 mi NW 8.1 mph - N/A   Mostly Cloudy
6:53 AM -2.9 °F -16.5 °F -9.0 °F 75% 29.82 in 10.0 mi WNW 6.9 mph - N/A   Overcast
7:53 AM -2.9 °F -17.7 °F -11.0 °F 68% 29.83 in 10.0 mi NW 8.1 mph - N/A   Overcast
8:38 AM -2.0 °F -12.2 °F -11.0 °F 66% 29.80 in 10.0 mi Variable 4.6 mph - N/A   Scattered Clouds
8:53 AM -0.9 °F -14.1 °F -9.9 °F 66% 29.85 in 10.0 mi Variable 6.9 mph - N/A   Clear
9:53 AM 1.0 °F -12.9 °F -9.0 °F 63% 29.86 in 10.0 mi NW 8.1 mph - N/A   Clear
10:53 AM 3.0 °F -10.5 °F -8.0 °F 60% 29.85 in 10.0 mi NW 8.1 mph 17.3 mph N/A   Clear
11:53 AM 5.0 °F -9.1 °F -8.0 °F 55% 29.83 in 10.0 mi West 9.2 mph 16.1 mph N/A   Clear
12:53 PM 6.1 °F -10.2 °F -7.1 °F 55% 29.82 in 10.0 mi West 12.7 mph - N/A   Clear
1:53 PM 8.1 °F -5.3 °F -6.0 °F 53% 29.82 in 10.0 mi West 9.2 mph - N/A   Clear
2:53 PM 10.0 °F -4.5 °F -6.0 °F 48% 29.83 in 10.0 mi West 11.5 mph - N/A   Clear
3:53 PM 9.0 °F -2.2 °F -6.0 °F 51% 29.86 in 10.0 mi WNW 6.9 mph - N/A   Clear
4:53 PM 6.1 °F - -6.0 °F 58% 29.88 in 10.0 mi Calm Calm - N/A   Clear
5:53 PM 3.9 °F -3.4 °F -6.0 °F 64% 29.89 in 10.0 mi WSW 3.5 mph - N/A   Clear
6:53 PM 1.9 °F -9.2 °F -7.1 °F 66% 29.92 in 10.0 mi West 5.8 mph - N/A   Clear
7:53 PM 3.0 °F -8.0 °F -6.0 °F 66% 29.94 in 10.0 mi NW 5.8 mph - N/A   Clear
8:53 PM 1.9 °F -7.6 °F -6.0 °F 69% 29.94 in 10.0 mi NNW 4.6 mph - N/A   Clear
9:53 PM 1.0 °F -12.9 °F -7.1 °F 69% 29.95 in 10.0 mi WNW 8.1 mph - N/A   Clear
10:53 PM -0.0 °F -13.0 °F -8.0 °F 69% 29.97 in 10.0 mi WNW 6.9 mph - N/A   Clear
11:53 PM -0.9 °F -16.4 °F -9.0 °F 69% 29.97 in 10.0 mi WNW 9.2 mph - N/A   Clear